Find Local Weather

World > North America > United States > Pennsylvania

Erie, Pennsylvania Regional Weather

Lat: 42.13N, Lon: 80.09W
Wx Zone: PAZ001
Warning FLW WEATHER ALERT - (More Info. Click Here) Warning
Feedback
Expires:201901171200;;487984
ASUS41 KPHI 171112
RWRPHI

REGIONAL WEATHER ROUNDUP
NATIONAL WEATHER SERVICE MOUNT HOLLY NJ
600 AM EST THU JAN 17 2019

NOTE:  "FAIR" INDICATES FEW OR NO CLOUDS BELOW 12,000 FEET WITH NO
SIGNIFICANT WEATHER AND/OR OBSTRUCTIONS TO VISIBILITY.

 * = STATION DOES NOT REPORT PRECIPITATION (E.G. RAIN, SNOW, ETC.) 
        OR FOG.


PAZ001-021-NYZ056-072-MDZ011-DCZ001-171200-
OTHER NEARBY LOCATIONS
  
CITY           SKY/WX    TMP DP  RH WIND       PRES   REMARKS
HARRISBURG     CLOUDY    29  15  56 NE5       30.33R WCI  24          
STATE COLLEGE  CLEAR     19  16  86 CALM      30.28R                  
WILLIAMSPORT   FAIR      20  11  68 W3        30.35R                  
BINGHAMTON     FAIR      10   6  84 NW5       30.26R WCI   2          
NEW YORK CITY  FAIR      25   8  48 MISG      30.36R                  
BALTIMORE      CLOUDY    34  26  72 CALM      30.31S                  
WASHINGTON DC  MOCLDY    35  23  61 N5        30.33S WCI  31          

$$
  

SKY/WX - Weather  TMP - Temperature  DP - Dew Point  RH - Relative Humidity
WIND - Wind Direction/Speed PRES - Barometric Pressure